Tracking 19908 objects as of 18-Oct-2019
HD Live streaming from Space Station
objects crossing your sky now

IRIDIUM 33 DEB

Track IRIDIUM 33 DEB now!
10-day predictions


NORAD ID: 36642
Int'l Code: 1997-051XC
Perigee: 664.1 km
Apogee: 699.6 km
Inclination: 86.4 °
Period: 98.2 minutes
Semi major axis: 7052 km
RCS: 0.013 m2 (small)
Launch date: September 14, 1997
Source: United States (US)
Launch site: TYURATAM MISSILE AND SPACE COMPLEX (TTMTR)

Note: This is SATELLITE DEBRIS
aabbcc
Your satellite tracking list
Your tracking list is empty




NASA's NSSDC Master Catalog

Two Line Element Set (TLE):
1 36642U 97051XC  19290.19213800  .00002486  00000-0  45039-3 0  9992
2 36642  86.3710 250.5100 0025199  22.3638 337.8668 14.65735871539781
Source of the keplerian elements: AFSPC